CST,Max TemperatureF,Mean TemperatureF,Min TemperatureF,Max Dew PointF,MeanDew PointF,Min DewpointF,Max Humidity, Mean Humidity, Min Humidity, Max Sea Level PressureIn, Mean Sea Level PressureIn, Min Sea Level PressureIn, Max VisibilityMiles, Mean VisibilityMiles, Min VisibilityMiles, Max Wind SpeedMPH, Mean Wind SpeedMPH, Max Gust SpeedMPH,PrecipitationIn, CloudCover, Events, WindDirDegrees
2012-12-1,64,53,42,50,45,41,93,77,56,30.20,30.13,30.06,10,10,10,,,,0.00,3,,-1
2012-12-2,64,63,62,61,61,61,94,90,88,30.11,30.07,30.03,10,10,7,,,,0.12,6,Rain,-1
2012-12-3,69,64,60,61,59,54,94,84,68,30.11,30.06,30.02,10,10,10,,,,0.00,3,,-1
2012-12-4,60,50,39,61,48,37,100,90,81,30.30,30.13,30.01,10,9,2,,,,0.76,5,Rain-Thunderstorm,-1
2012-12-5,57,45,33,45,37,34,100,81,44,30.37,30.29,30.17,10,8,0,8,5,,0.00,0,Fog,54
2012-12-6,51,44,37,50,41,34,100,86,67,30.16,30.05,29.96,10,10,7,8,4,,0.00,6,,93
2012-12-7,60,55,50,57,52,50,100,99,88,29.96,29.88,29.82,10,5,0,14,2,20,0.05,8,Fog-Rain,198
2012-12-8,55,50,46,55,48,45,100,96,87,29.99,29.93,29.84,10,5,2,10,4,,0.05,8,Rain,14
2012-12-9,60,53,46,59,50,45,100,97,88,29.95,29.83,29.72,10,5,1,17,7,23,1.15,8,Rain-Thunderstorm,46
2012-12-10,44,38,32,41,29,23,93,81,69,30.09,29.93,29.81,10,10,10,17,10,24,0.00,8,,314
2012-12-11,41,34,26,27,23,21,93,71,49,30.27,30.17,30.08,10,10,10,9,5,,0.00,2,,240
2012-12-12,46,34,23,30,27,23,100,79,46,30.38,30.33,30.26,10,9,5,7,1,,0.00,0,,111
2012-12-13,53,38,24,32,26,19,100,73,30,30.40,30.33,30.25,10,10,7,10,2,,0.00,0,,175
2012-12-14,53,40,28,36,30,23,93,69,38,30.29,30.20,30.07,10,10,7,13,2,16,0.00,0,,173
2012-12-15,59,52,44,55,46,34,100,84,62,30.04,29.85,29.73,10,10,4,22,11,31,0.08,6,Rain,185
2012-12-16,59,50,42,55,48,43,100,94,59,29.78,29.73,29.67,10,8,0,10,5,,0.00,1,Fog,226
2012-12-17,50,46,41,46,43,37,100,97,87,29.82,29.70,29.61,7,5,2,13,4,16,0.00,7,Rain-Thunderstorm,322
2012-12-18,55,44,32,41,36,32,100,77,47,29.89,29.83,29.76,10,10,5,18,8,26,0.00,2,,227
2012-12-19,59,46,33,46,39,32,100,79,55,30.02,29.91,29.65,10,9,5,16,6,23,0.00,2,,87
2012-12-20,60,46,32,55,36,21,100,72,52,29.90,29.59,29.35,10,9,3,34,23,46,0.29,7,Rain-Snow-Thunderstorm,238
2012-12-21,37,32,28,21,18,14,69,56,38,30.28,30.14,29.91,10,10,10,26,19,36,0.00,0,,287
2012-12-22,46,34,21,27,20,18,93,63,32,30.33,30.20,30.02,10,10,10,9,3,,0.00,0,,198
2012-12-23,59,49,39,43,35,28,87,65,41,30.01,29.93,29.84,10,10,10,9,5,,0.00,3,,202
2012-12-24,46,39,32,46,36,27,100,90,66,30.10,29.92,29.78,10,5,0,16,5,21,0.00,7,Fog,319
2012-12-25,35,32,28,30,27,25,93,83,70,30.20,30.07,29.80,10,7,4,25,10,33,0.00,7,Snow,28
2012-12-26,32,31,30,32,30,27,100,92,80,30.14,29.88,29.65,10,5,0,28,17,36,0.10,8,Rain-Snow,331
2012-12-27,32,30,28,27,26,23,93,83,69,30.23,30.16,30.10,10,10,7,10,5,,0.00,8,,64
2012-12-28,35,30,26,32,30,25,100,94,86,30.10,29.98,29.84,10,5,1,8,5,,0.01,6,Rain-Snow,76
2012-12-29,32,23,12,32,27,10,100,93,74,30.38,30.12,29.85,10,5,0,17,6,23,0.01,7,Fog-Snow,289
2012-12-30,32,18,3,30,16,0,100,91,75,30.51,30.41,30.31,10,4,0,10,1,,0.34,3,Fog,197
2012-12-31,35,30,26,32,30,27,100,91,75,30.30,30.18,30.07,10,8,1,10,4,,0.04,5,Rain-Snow,211